Regional Weather Roundup
Issued by NWS Charleston, SC

Current Version | Previous Version | Text Only | Print | Product List | Glossary Off
Versions: 1 2 3 4 5 6 7 8 9 10 11 12 13 14 15 16 17 18 19 20 21 22 23 24 25 26 27 28 29 30 31 32 33 34 35 36 37 38 39 40 41 42 43 44 45 46 47 48 49 50
000 ASUS42 KCHS 300812 RWRCHS REGIONAL WEATHER ROUNDUP NATIONAL WEATHER SERVICE CHARLESTON SC 400 AM EDT SUN APR 30 2017 NOTE: "FAIR" INDICATES FEW OR NO CLOUDS BELOW 12,000 FEET WITH NO SIGNIFICANT WEATHER AND/OR OBSTRUCTIONS TO VISIBILITY. NOT ALL STATIONS ARE QUALITY CONTROLLED. USE DATA WITH CAUTION... ESPECIALLY DEWPOINT OBSERVATIONS. SCZ027-030-031-034>040-042>050-300900- ...SOUTHEAST SOUTH CAROLINA... CITY SKY/WX TMP DP RH WIND PRES REMARKS N CHARLESTON MOCLDY 73 69 87 S9 30.16F WATERFRONT PRK N/A 74 72 93 S8 30.15F JOHNS ISLAND FAIR 73 72 94 SE5 30.16F PINOPOLIS N/A 72 72 100 CALM 30.08S MONCKS CORNER FAIR 70 68 94 S5 30.16S FOG SUMMERVILLE FAIR 72 70 94 CALM 30.16F BEAUFORT MCAS CLOUDY 76 74 93 SE8 30.15S BEAUFORT ARPT FAIR 73 70 88 S5 30.15S HILTON HEAD IS CLOUDY 75 72 88 VRB6 30.16S WALTERBORO PTSUNNY 70 70 100 SE7 30.16R ALLENDALE PTSUNNY 70 70 100 CALM 30.13S ...SOUTHERN MIDLANDS AND PEE DEE... CITY SKY/WX TMP DP RH WIND PRES REMARKS GEORGETOWN FAIR 72 70 94 CALM 30.18S KINGSTREE CLOUDY 70 68 94 SE5 30.15F ORANGEBURG CLOUDY 73 70 90 S7 30.15F BARNWELL CLOUDY 73 72 94 SE8 30.14S AIKEN CLOUDY 68 68 100 S9 30.17S MANNING FAIR 70 68 94 S15G28 30.16S COLUMBIA MOCLDY 73 68 84 S8 30.13F SUMTER CLOUDY 72 68 87 S7 30.13S FLORENCE CLOUDY 70 70 100 S6 30.16S MYRTLE BEACH NOT AVBL N MYRTLE BEACH PTCLDY 73 72 96 S9 30.17S $$ GAZ063-065-086>088-099>101-113>116-118-119-134>141-150-300900- ...SOUTHEAST GEORGIA... CITY SKY/WX TMP DP RH WIND PRES REMARKS SAVANNAH ARPT MOCLDY 74 69 85 SE9 30.14S HUNTER AAF CLOUDY 74 74 100 SE5 30.12R FOG FORT STEWART CLOUDY 71 68 91 CALM 30.12R STATESBORO CLOUDY 71 71 100 SE3 30.13S SYLVANIA PTSUNNY N/A N/A N/A CALM 30.14F FOG CLAXTON FAIR N/A N/A N/A CALM 30.13S ...CSRA...CENTRAL AND FAR SOUTHEAST GEORGIA... CITY SKY/WX TMP DP RH WIND PRES REMARKS THOMSON CLOUDY 69 67 92 SW5 30.17S AUGUSTA-BUSH CLOUDY 72 70 93 SE7 30.12R FOG AUGUSTA-DANIEL CLOUDY 71 67 87 S7 30.14S SWAINSBORO CLOUDY 72 70 94 S7 30.13S VIDALIA CLOUDY 72 70 94 S7 30.12S EASTMAN CLOUDY 73 70 92 SE9 30.13S HAZLEHURST CLOUDY 73 73 100 S6 30.11S ALMA CLOUDY 71 70 96 SE7 30.11F WAYCROSS PTCLDY 74 74 100 SE6 30.12S JESUP FAIR 70 66 88 CALM 30.13S BAXLEY MOCLDY 72 72 100 SE6 30.12S BRUNSWICK MOCLDY 77 73 88 SE10 30.13F SAINT SIMONS CLOUDY 76 71 85 SE10 30.13F $$ SCZ027-028-034-036>038-045-046-048>050-GAZ119-141-300900- ...LAKE AND SUPPLEMENTAL COASTAL OBSERVATIONS... STATION/POSITION TIME TEMP WIND PRES WAVE SWELL AIR SEA DIR/SP/G HT/PER HT/PER/DIR (UTC) (F) (DEG/KT/KT) (MB) (FT/S) (FT/S/D) WINYAH BAY NOT AVBL LAKE MURRAY 0720 72 170/ 11/ 15 1020.0 ACE BASIN NERRS NOT AVBL FORT PULASKI 0742 74 76 160/ 5/ 8 1021.1F SAPELO ISLAND 0700 75 150/ 8 1021.0 $$ ANZ835-935-AMZ111-154-330-350-352-354-370-450-454-472-300900- ...C-MAN AND BUOY OBSERVATIONS... STATION/POSITION TIME TEMP WIND PRES WAVE SWELL AIR SEA DIR/SP/G HT/PER HT/PER/DIR (UTC) (F) (DEG/KT/KT) (MB) (FT/S) (FT/S/D) BUOY 41004 0750 76 75 170/ 8/ 10 1021.6S 3/ 7 2/130/ 7 BUOY 41008 0650 74 74 150/ 10/ 10 1020.7 3/ 5 2/130/ 5 FOLLY BEACH CMAN 0700 75 160/ 8/ 9 1022.3F CAPERS NEARSHORE 0708 76 76 170/ 8/ 10 1021.8F FRIPP NEARSHORE 0708 74 75 160/ 6/ 10 1020.9F STATION/POSITION TIME TEMP WIND PRES WAVE SWELL AIR SEA DIR/SP/G HT/PER HT/PER/DIR (UTC) (F) (DEG/KT/KT) (MB) (FT/S) (FT/S/D) 5E ST. MARYS GA 0730 75 N/A 3/ 5 FRYING PAN BUOY 0750 75 74 190/ 12/ 14 1022.4R 3/ 6 2/130/ 6 BUOY 41025 0750 76 75 220/ 16/ 19 1022.1S 3/ 5 2/160/ 7 CAPE LOOKOUT NC 0700 72 210/ 7/ 9 1022.3F BUOY 41002 0750 74 76 160/ 12/ 14 1024.3R 3/ 9 2/ 60/ 9 BUOY 41010 0750 77 78 140/ 16/ 19 1021.0F 6/ 6 2/140/15 ST AUGUSTINE FL 0800 76 77 150/ 14/ 15 1021.0S $$

USA.gov is the U.S. government's official web portal to all federal, state and local government web resources and services.